Location: Newark
(45.8667°N, 9.7333°E)
Time: 18:01:12
(UTC+00:00)

A-11 Canister half - Pass Details

Date: 23 January 2020
Orbit: 1517 x 1683 km, 47.2° (Epoch: 22 February)

Event Time Altitude Azimuth Distance (km) Brightness Sun altitude
Rises 03:36:57 0° 282° (WNW) 4,675 - -33.9°
Reaches altitude 10° 03:39:59 10° 283° (WNW) 3,685 - -33.4°
Exits shadow 03:47:51 69° 283° (WNW) 1,610 8.7 -32.0°
Maximum altitude 03:49:17 89° 195° (SSW) 1,524 8.8 -31.8°
Drops below altitude 10° 03:58:39 10° 106° (ESE) 3,712 11.8 -30.1°
Sets 04:01:43 0° 107° (ESE) 4,710 12.6 -29.6°
